www.pogodaiklimat.ru
ПОГОДА в Калуге аэропорт
Время
(UTC), дата
07 25.11
08 25.11
09 25.11
10 25.11
11 25.11
12 25.11
13 25.11
14 25.11
15 25.11
16 25.11
17 25.11
18 25.11
19 25.11
20 25.11
21 25.11
22 25.11
23 25.11
00 26.11
01 26.11
02 26.11
03 26.11
04 26.11
05 26.11
06 26.11
07 26.11
08 26.11
09 26.11
10 26.11
11 26.11
12 26.11
13 26.11
14 26.11
15 26.11
16 26.11
17 26.11
18 26.11
19 26.11
20 26.11
21 26.11
22 26.11
23 26.11
00 27.11
01 27.11
02 27.11
03 27.11
04 27.11
05 27.11
06 27.11
07 27.11
08 27.11
09 27.11
10 27.11
11 27.11
12 27.11
13 27.11
14 27.11
15 27.11
16 27.11
17 27.11
18 27.11
19 27.11
20 27.11
21 27.11
22 27.11
23 27.11
00 28.11
01 28.11
02 28.11
03 28.11
04 28.11
05 28.11
06 28.11
07 28.11
08 28.11
09 28.11
10 28.11
11 28.11
12 28.11
13 28.11
14 28.11
15 28.11
16 28.11
17 28.11
18 28.11
19 28.11
20 28.11
21 28.11
22 28.11
23 28.11
00 29.11
01 29.11
02 29.11
03 29.11
04 29.11
05 29.11
06 29.11
07 29.11
08 29.11
09 29.11
10 29.11
11 29.11
12 29.11
13 29.11
14 29.11
15 29.11
16 29.11
17 29.11
18 29.11
19 29.11
20 29.11
21 29.11
22 29.11
23 29.11
00 30.11
01 30.11
02 30.11
03 30.11
04 30.11
05 30.11
06 30.11
07 30.11
08 30.11
09 30.11
10 30.11
11 30.11
12 30.11
13 30.11
14 30.11
15 30.11
16 30.11
17 30.11
18 30.11
19 30.11
20 30.11
21 30.11
22 30.11
00 1.12
01 1.12
02 1.12
03 1.12
04 1.12
05 1.12
06 1.12
07 1.12
08 1.12
09 1.12
10 1.12
11 1.12
12 1.12
13 1.12
14 1.12
15 1.12
16 1.12
17 1.12
18 1.12
19 1.12
20 1.12
21 1.12
22 1.12
23 1.12
00 2.12
01 2.12
02 2.12
03 2.12
04 2.12
05 2.12
06 2.12
23 30.12
Ветер
(напр.,м/с)
Видим. Явления Облачность Т
(С)
Тd
(С)
f
(%)
Тe
(С)
Тes
(С)
Комфортность P
(гПа)
Po
(гПа)
Тmin
(С)
Tmax
(С)
R
(мм)
R24
(мм)
S
(см)
З 2 10 км нет нижн обл +1.0 0.0 93 -3 -3 по сезону 1013.0 990.7
СЗ 2 10 км 8/8 300 м +1.0 -1.0 86 -2 -2 по сезону 1014.0 990.7
СЗ 2 10 км 8/8 300 м +1.0 -1.0 86 -2 -2 по сезону 1014.0 990.7
СЗ 4 10 км 8/8 300 м +1.0 -1.0 86 -4 -4 тепло 1014.0 992.0
СЗ 3 10 км 8/8 300 м +1.0 -1.0 86 -3 -3 тепло 1014.0 992.0
СЗ 2 10 км 8/8 300 м +1.0 -1.0 86 -2 -2 по сезону 1015.0 992.0
СЗ 3 10 км 8/8 390 м +1.0 -1.0 86 -3 -3 тепло 1016.0 993.3
СЗ 3 10 км 8/8 390 м +1.0 0.0 93 -4 -4 тепло 1016.0 993.3
СЗ 2 10 км 10/10 1410 м +1.0 0.0 93 -3 -3 по сезону 1017.0 992.0
СЗ 2 10 км 10/10 1440 м 0.0 -1.0 93 -4 -4 тепло 1017.0 993.3
СЗ 2 10 км 10/10 1380 м +1.0 -1.0 86 -2 -2 тепло 1017.0 993.3
СЗ 2 10 км нет нижн обл 0.0 -1.0 93 -4 -4 по сезону 1018.0 993.3
СЗ 2 10 км нет нижн обл 0.0 -1.0 93 -4 -4 тепло 1018.0 993.3
СЗ 2 10 км нет нижн обл 0.0 -1.0 93 -4 -4 тепло 1018.0 993.3
СЗ 2 10 км нет нижн обл 0.0 -1.0 93 -4 -4 по сезону 1019.0 994.7
штиль 10 км нет нижн обл 0.0 -1.0 93 -1 -1 тепло 1019.0 994.7
СЗ 2 н/о нет нижн обл 0.0 -2.0 86 -4 -4 тепло 1019.0 994.7
СЗ 2 10 км нет нижн обл 0.0 -2.0 86 -4 -4 по сезону 1020.0 994.7
штиль 10 км нет нижн обл -1.0 -2.0 93 -2 -2 тепло 1020.0 994.7
З 1 10 км нет нижн обл 0.0 -2.0 86 -2 -2 тепло 1020.0 994.7
штиль 0 10 км 10/10 1050 м -1.0 -1.0 100 -2 -2 по сезону 1020.0 997.3
штиль 0 9000 м 10/10 1020 м -1.0 -2.0 93 -2 -2 тепло 1020.0 997.3
ЮВ 1 н/о переохл. туман нет нижн обл -2.0 -2.0 100 -4 -4 тепло 1020.0 997.3
ЮВ 1 9000 м 5/5 990 м -2.0 -2.0 100 -4 -4 по сезону 1019.0 997.3
Ю 2 10 км нет нижн обл 0.0 -1.0 93 -4 -4 тепло 1020.0 994.7
ЮЗ 4 5000 м слаб. снег 10/10 600 м
[Ns]
0.0 -2.0 86 -5 -5 тепло 1019.0 994.7
Ю 3 9000 м слаб. снег 10/10 300 м
[Ns]
0.0 -2.0 86 -5 -5 по сезону 1019.0 996.0
Ю 3 4000 м слаб. снег 10/10 150 м
[Ns]
0.0 -1.0 93 -5 -5 по сезону 1018.0 996.0
Ю 3 3800 м слаб. снег 10/10 120 м
[Ns]
0.0 -1.0 93 -5 -5 тепло 1017.0 994.7
Ю 3 5000 м слаб. снег 10/10 120 м
[Ns]
0.0 0.0 100 -5 -5 по сезону 1017.0 994.7
Ю 3 1600 м слаб. морось 10/10 90 м
[St]
0.0 0.0 100 -5 -5 по сезону 1016.0 993.3
Ю 2 1300 м слаб. морось ?/? 0.0 0.0 100 -4 -4 тепло 1016.0 993.3
Ю 3 1800 м слаб. морось ?/? +1.0 0.0 93 -4 -4 по сезону 1016.0 993.3
Ю 3 6000 м слаб. дождь 10/10 60 м
[Ns]
+1.0 +1.0 100 -4 -4 по сезону 1015.0 992.0
Ю 2 8000 м 10/10 60 м +1.0 +1.0 100 -3 -3 тепло 1015.0 992.0
ЮЗ 3 9000 м нет нижн обл +1.0 +1.0 100 -4 -4 по сезону 1014.0 992.0
ЮЗ 4 н/о нет нижн обл +2.0 +1.0 93 -3 -3 тепло 1014.0 990.7
ЮЗ 4 3800 м нет нижн обл +2.0 +2.0 100 -3 -3 тепло 1014.0 990.7
ЮЗ 3 4000 м нет нижн обл +2.0 +2.0 100 -3 -3 по сезону 1013.0 990.7
ЮЗ 3 7000 м нет нижн обл +2.0 +2.0 100 -3 -3 тепло 1013.0 990.7
ЮЗ 4 н/о нет нижн обл +2.0 +2.0 100 -3 -3 тепло 1012.0 989.3
Ю 3 10 км нет нижн обл +2.0 +1.0 93 -2 -2 по сезону 1011.0 989.3
ЮЗ 3 н/о нет нижн обл +2.0 0.0 87 -2 -2 тепло 1011.0 988.0
ЮЗ 4 н/о нет нижн обл +2.0 +1.0 93 -3 -3 тепло 1010.0 988.0
ЮЗ 4 10 км 8/8 450 м +2.0 0.0 87 -3 -3 по сезону 1010.0 988.0
ЮЗ 4 10 км 8/8 300 м +2.0 0.0 87 -3 -3 тепло 1009.0 986.7
ЮЗ 4 10 км 8/8 300 м +1.0 0.0 93 -4 -4 тепло 1009.0 986.7
ЮЗ 5 10 км 10/10 300 м +2.0 -1.0 80 -3 -3 по сезону 1009.0 986.7
ЮЗ 5 10 км 10/10 330 м +1.0 -1.0 86 -5 -5 по сезону 1009.0 986.7
ЮЗ 5 10 км 10/10 330 м +1.0 -1.0 86 -5 -5 тепло 1009.0 986.7
ЮЗ 5 10 км 10/10 300 м +1.0 -1.0 86 -5 -5 по сезону 1009.0 986.7
ЮЗ 4 9000 м 10/10 150 м +1.0 -1.0 86 -4 -4 по сезону 1009.0 984.0
ЮЗ 4 7000 м 10/10 150 м +1.0 -1.0 86 -4 -4 тепло 1009.0 986.7
ЮЗ 4 5000 м дымка 10/10 150 м +1.0 0.0 93 -4 -4 по сезону 1009.0 986.7
ЮЗ 4 7000 м слаб. снег 10/10 150 м
[Ns]
0.0 -1.0 93 -6 -6 по сезону 1009.0 986.7
ЮЗ 4 5000 м дымка 10/10 150 м 0.0 -1.0 93 -6 -6 тепло 1009.0 986.7
ЮЗ 2 2400 м слаб. снег 10/10 120 м
[Ns]
0.0 -1.0 93 -4 -4 по сезону 1010.0 985.3
ЮЗ 4 7000 м слаб. снег 10/10 120 м
[Ns]
0.0 -1.0 93 -6 -6 по сезону 1010.0 985.3
ЮЗ 4 9000 м слаб. снег 10/10 180 м
[Ns]
0.0 -1.0 93 -6 -6 тепло 1010.0 985.3
Ю 4 6000 м нет нижн обл 0.0 -1.0 93 -6 -6 по сезону 1010.0 986.7
Ю 4 8000 м нет нижн обл 0.0 -1.0 93 -6 -6 по сезону 1011.0 986.7
Ю 3 5000 м нет нижн обл 0.0 0.0 100 -5 -5 тепло 1011.0 986.7
Ю 3 н/о нет нижн обл +1.0 0.0 93 -4 -4 по сезону 1012.0 988.0
Ю 3 5000 м нет нижн обл +1.0 0.0 93 -4 -4 по сезону 1012.0 988.0
Ю 3 7000 м нет нижн обл +1.0 0.0 93 -4 -4 тепло 1013.0 988.0
Ю 4 4000 м нет нижн обл +1.0 0.0 93 -4 -4 по сезону 1013.0 989.3
Ю 3 5000 м нет нижн обл +1.0 +1.0 100 -4 -4 по сезону 1014.0 989.3
Ю 3 5000 м нет нижн обл +1.0 +1.0 100 -4 -4 тепло 1015.0 990.7
Ю 2 4000 м слаб. снег 10/10 60 м
[Ns]
+1.0 0.0 93 -3 -3 по сезону 1015.0 990.7
Ю 2 2700 м дымка 10/10 60 м
[St]
+1.0 +1.0 100 -3 -3 тепло 1016.0 992.0
Ю 2 3400 м дымка 10/10 90 м
[St]
+1.0 +1.0 100 -3 -3 тепло 1016.0 992.0
Ю 1 н/о туман 10/10 60 м
[St]
+1.0 +1.0 100 -1 -1 по сезону 1018.0 994.7
Ю 1 2000 м дымка 10/10 60 м
[St]
+1.0 +1.0 100 -1 -1 тепло 1019.0 996.0
штиль 0 н/о туман 10/10 60 м
[St]
+2.0 +1.0 93 +1 +1 тепло 1019.0 996.0
ЮВ 1 5000 м дымка 10/10 180 м +2.0 +1.0 93 0 0 тепло 1020.0 997.3
В 1 7000 м 10/10 120 м +2.0 +2.0 100 0 0 тепло 1020.0 997.3
В 1 6000 м 10/10 90 м +2.0 +1.0 93 0 0 тепло 1021.0 998.7
СВ 1 300 м туман ?/? +2.0 +1.0 93 0 0 по сезону 1021.0 998.7
СВ 1 н/о туман ?/? +2.0 +1.0 93 0 0 тепло 1021.0 998.7
СВ 2 4000 м дымка 10/10 90 м +2.0 +2.0 100 -2 -2 тепло 1022.0 998.7
СВ 2 4000 м дымка 10/10 150 м +2.0 +2.0 100 -2 -2 по сезону 1022.0 998.7
В 2 5000 м дымка 10/10 180 м +2.0 +2.0 100 -2 -2 тепло 1022.0 1000.0
В 3 6000 м 10/10 450 м +2.0 +1.0 93 -2 -2 тепло 1023.0 1000.0
В 3 9000 м нет нижн обл +2.0 +1.0 93 -2 -2 по сезону 1023.0 1000.0
В 3 7000 м нет нижн обл +1.0 0.0 93 -4 -4 по сезону 1023.0 1000.0
В 4 5000 м нет нижн обл +1.0 0.0 93 -4 -4 тепло 1023.0 1000.0
В 4 5000 м нет нижн обл +1.0 +1.0 100 -5 -5 по сезону 1023.0 1000.0
В 4 7000 м нет нижн обл +1.0 +1.0 100 -5 -5 по сезону 1022.0 1000.0
В 5 9000 м нет нижн обл +1.0 +1.0 100 -5 -5 тепло 1022.0 998.7
В 5 9000 м нет нижн обл +1.0 +1.0 100 -5 -5 по сезону 1022.0 998.7
В 6 9000 м нет нижн обл +1.0 +1.0 100 -6 -6 по сезону 1021.0 998.7
В 5 9000 м нет нижн обл +2.0 +1.0 93 -4 -4 тепло 1021.0 998.7
В 4 7000 м слаб. дождь 10/10 120 м
[Ns]
+2.0 +2.0 100 -3 -3 по сезону 1021.0 998.7
В 5 5000 м слаб. дождь 10/10 180 м
[Ns]
+3.0 +3.0 100 -3 -3 тепло 1022.0 998.7
ЮВ 7 9000 м 10/10 300 м +3.0 +2.0 93 -3 -3 тепло 1022.0 998.7
ЮВ 5 10 км 10/10 330 м +3.0 +2.0 93 -2 -2 по сезону 1023.0 1000.0
В 5 10 км 10/10 300 м +3.0 +1.0 87 -2 -2 тепло 1023.0 1000.0
В 7 10 км 10/10 240 м +2.0 +1.0 93 -5 -5 тепло 1023.0 998.7
В 6 9000 м слаб. дождь 10/10 210 м
[Ns]
+2.0 +1.0 93 -4 -4 по сезону 1023.0 998.7
В 6 7000 м слаб. дождь 10/10 180 м
[Ns]
+2.0 +1.0 93 -4 -4 по сезону 1023.0 998.7
ЮВ 6 9000 м слаб. дождь 10/10 180 м
[Ns]
+2.0 +1.0 93 -4 -4 тепло 1024.0 998.7
ЮВ 5 10 км 10/10 180 м +2.0 0.0 87 -4 -4 по сезону 1023.0 998.7
В 7 10 км 10/10 180 м +2.0 0.0 87 -5 -5 по сезону 1023.0 998.7
ЮВ 7 10 км 10/10 240 м +3.0 +1.0 87 -3 -3 тепло 1024.0 998.7
ЮВ 7 10 км 10/10 210 м +3.0 +2.0 93 -3 -3 по сезону 1024.0 998.7
ЮВ 6 10 км 10/10 270 м +3.0 +2.0 93 -3 -3 по сезону 1024.0 998.7
ЮВ 6 10 км 10/10 330 м +4.0 +2.0 87 -2 -2 тепло 1024.0 998.7
ЮВ 6 10 км нет нижн обл +4.0 +2.0 87 -2 -2 по сезону 1024.0 998.7
ЮВ 6 10 км нет нижн обл +4.0 +2.0 87 -2 -2 тепло 1024.0 1000.0
ЮВ 7 10 км нет нижн обл +4.0 +2.0 87 -2 -2 тепло 1024.0 1000.0
Ю 6 7000 м нет нижн обл +4.0 +3.0 93 -2 -2 по сезону 1025.0 1000.0
ЮВ 4 3600 м нет нижн обл +4.0 +3.0 93 -1 -1 тепло 1025.0 1000.0
ЮВ 4 5000 м нет нижн обл +4.0 +4.0 100 -1 -1 тепло 1025.0 1000.0
ЮВ 5 9000 м нет нижн обл +4.0 +4.0 100 -1 -1 тепло 1025.0 1000.0
ЮВ 5 10 км нет нижн обл +4.0 +3.0 93 -1 -1 тепло 1025.0 1000.0
ЮВ 7 10 км нет нижн обл +4.0 +3.0 93 -2 -2 тепло 1025.0 1000.0
ЮВ 5 8000 м дымка нет нижн обл +3.0 +2.0 93 -2 -2 тепло 1025.0 1000.0
ЮВ 5 6000 м 10/10 60 м +2.0 +2.0 100 -4 -4 тепло 1025.0 1001.3
ЮВ 6 9000 м 10/10 90 м +2.0 +2.0 100 -4 -4 тепло 1025.0 1001.3
ЮВ 6 10 км 10/10 150 м +2.0 +1.0 93 -4 -4 по сезону 1026.0 1001.3
ЮВ 5 9000 м слаб. дождь 10/10 180 м
[Ns]
+2.0 +1.0 93 -4 -4 тепло 1026.0 1001.3
ЮВ 5 10 км слаб. дождь 10/10 150 м
[Ns]
+2.0 +1.0 93 -4 -4 тепло 1026.0 1001.3
ЮВ 6 10 км слаб. дождь 10/10 180 м
[Ns]
+2.0 +1.0 93 -4 -4 по сезону 1026.0 1001.3
ЮВ 5 10 км слаб. дождь 10/10 150 м
[Ns]
+2.0 +1.0 93 -4 -4 тепло 1026.0 1001.3
ЮВ 4 10 км слаб. дождь 10/10 180 м
[Ns]
+2.0 +1.0 93 -3 -3 тепло 1026.0 1002.7
ЮВ 4 10 км слаб. дождь 10/10 150 м
[Ns]
+2.0 +1.0 93 -3 -3 по сезону 1026.0 1001.3
ЮВ 5 10 км слаб. дождь 10/10 150 м
[Ns]
+2.0 +1.0 93 -4 -4 тепло 1026.0 1001.3
ЮВ 4 9000 м слаб. дождь со снегом 10/10 150 м
[Ns]
+1.0 +1.0 100 -5 -5 тепло 1026.0 1001.3
ЮВ 4 9000 м слаб. дождь со снегом 10/10 150 м
[Ns]
+1.0 +1.0 100 -5 -5 по сезону 1026.0 1001.3
ЮВ 4 6000 м слаб. дождь со снегом 10/10 120 м
[Ns]
+1.0 0.0 93 -4 -4 тепло 1026.0 1001.3
ЮВ 4 10 км слаб. дождь со снегом 10/10 90 м
[Ns]
+1.0 +1.0 100 -5 -5 тепло 1026.0 1001.3
ЮВ 4 10 км нет нижн обл +1.0 +1.0 100 -5 -5 по сезону 1026.0 1001.3
ЮВ 4 4000 м нет нижн обл +1.0 0.0 93 -4 -4 тепло 1027.0 1001.3
ЮВ 3 5000 м нет нижн обл 0.0 0.0 100 -5 -5 тепло 1027.0 1002.7
ЮВ 3 7000 м нет нижн обл +1.0 0.0 93 -4 -4 по сезону 1027.0 1002.7
ЮВ 4 8000 м нет нижн обл +1.0 0.0 93 -4 -4 тепло 1027.0 1002.7
ЮВ 3 5000 м нет нижн обл 0.0 0.0 100 -5 -5 по сезону 1027.0 1002.7
ЮВ 3 6000 м нет нижн обл 0.0 0.0 100 -5 -5 тепло 1027.0 1002.7
ЮВ 3 6000 м нет нижн обл 0.0 0.0 100 -5 -5 тепло 1027.0 1002.7
ЮВ 4 6000 м слаб. снег 10/10 120 м
[Ns]
0.0 0.0 100 -6 -6 по сезону 1027.0 1002.7
ЮВ 3 4000 м слаб. снег 10/10 90 м
[Ns]
0.0 0.0 100 -5 -5 тепло 1028.0 1002.7
ЮВ 4 2700 м слаб. снег 10/10 90 м
[Ns]
0.0 0.0 100 -6 -6 тепло 1028.0 1004.0
ЮВ 4 3900 м слаб. снег 10/10 90 м
[Ns]
0.0 -1.0 93 -6 -6 по сезону 1028.0 1004.0
ЮВ 4 2300 м слаб. снег 10/10 120 м
[Ns]
0.0 -1.0 93 -6 -6 по сезону 1029.0 1004.0
ЮВ 3 4000 м слаб. переохл. морось (гололёд) 10/10 90 м
[St]
0.0 -1.0 93 -5 -5 тепло 1029.0 1004.0
Ю 3 5000 м слаб. переохл. морось (гололёд) 10/10 180 м
[St]
0.0 -1.0 93 -5 -5 по сезону 1029.0 1004.0
ЮВ 2 8000 м 10/10 210 м 0.0 -1.0 93 -4 -4 тепло 1029.0 1005.3
ЮВ 2 9000 м 10/10 150 м 0.0 -1.0 93 -4 -4 тепло 1030.0 1005.3
ЮВ 3 9000 м слаб. снег 10/10 180 м
[Ns]
-1.0 -1.0 100 -6 -6 по сезону 1030.0 1005.3
ЮВ 3 9000 м слаб. снег 10/10 120 м
[Ns]
-1.0 -2.0 93 -6 -6 по сезону 1030.0 1005.3
ЮВ 3 9000 м 10/10 150 м -1.0 -2.0 93 -6 -6 тепло 1031.0 1006.7
ЮВ 2 9000 м 10/10 150 м -1.0 -2.0 93 -5 -5 по сезону 1031.0 1006.7
ЮВ 3 9000 м 10/10 120 м -2.0 -2.0 100 -7 -7 по сезону 1032.0 1006.7
ЮВ 3 10 км 10/10 150 м -2.0 -2.0 100 -7 -7 тепло 1032.0 1006.7
ЮВ 2 10 км нет нижн обл -2.0 -3.0 93 -6 -6 по сезону 1032.0 1008.0
ЮВ 2 10 км нет нижн обл -2.0 -3.0 93 -6 -6 по сезону 1032.0 1008.0
ЮВ 3 10 км нет нижн обл -2.0 -3.0 93 -7 -7 тепло 1033.0 1008.0
В 3 10 км нет нижн обл -2.0 -3.0 93 -7 -7 по сезону 1033.0 1008.0
В 3 10 км нет нижн обл -2.0 -3.0 93 -7 -7 по сезону 1033.0 1008.0
В 3 10 км нет нижн обл -2.0 -4.0 86 -7 -7 тепло 1033.0 1008.0
В 3 н/о нет нижн обл -2.0 -4.0 86 -7 -7 по сезону 1034.0 1009.3
В 2 10 км нет нижн обл -3.0 -5.0 86 -7 -7 по сезону 1034.0 1009.3
В 2 10 км нет нижн обл -4.0 -5.0 93 -8 -8 тепло 1033.0 1008.0
В 2 10 км нет нижн обл -4.0 -6.0 86 -8 -8 по сезону 1034.0 1009.3
В 2 10 км нет нижн обл -5.0 -6.0 93 -9 -9 по сезону 1034.0 1009.3
В 2 10 км нет нижн обл -5.0 -6.0 93 -9 -9 тепло 1034.0 1009.3
В 3 10 км нет нижн обл -5.0 -7.0 86 -11 -11 прохладно 1034.0 1009.3
ЮВ 3 9000 м нет нижн обл 0.0 0.0 100 -5 -5 тепло 1027.0 1002.7
Местоположение метеостанции Калуга аэропорт (Калужская область, Россия): широта 54.55 долгота 36.37 высота над уровнем моря 199 м.
В архиве по умолчанию представлена погода в Калуге аэропорт за последнюю неделю. Архивные данные за месяц целиком и за предыдущие месяцы, начиная с января 2011 года, Вы можете получить, выбрав интересующий диапазон дат из раскрывающегося списка и нажав кнопку "Найти!".
*Определитесь, кто Вы:
Внимание! Время в таблицах - всемирное. Для получения местного времени необходимо прибавить поправку, которая равна 3 ч.
Смотрите также архив погоды в соседних городах и на ближайших метеорологических станциях:
Партнеры нашего сайта:      
Пояснения к столбцам:
  • Ветер - указаны скорость ветра в м/с - средняя за 10 мин, порывы в срок и между сроками (в фигурных скобках) и направление, откуда дует ветер: С - северный,
  • СВ - северо-восточный, В - восточный, ЮВ - юго-восточный, Ю - южный, ЮЗ - юго-западный, З - западный, СЗ - северо-западный.
  • Видимость - горизонтальная дальность видимости в метрах или километрах. При видимости от 1 до 10 км при отсутствии осадков обычно наблюдается дымка, при ухудшении видимости до 1 км и менее - туман. В сухую погоду видимость может ухудшаться дымом, пылью или мглою.
  • Явления - указаны атмосферные явления, наблюдавшиеся в срок или в последний час перед сроком; фигурными скобками обозначены явления, наблюдавшиеся между сроками (за 1-3 часа до срока); квадратными скобками обозначены град или гололедные отложения с указанием их диаметра в мм.
  • Облачность - указаны через наклонную черту общая и нижняя облачность в баллах и высота нижней границы облаков в метрах; квадратными скобками обозначены формы облаков: Ci - перистые, Cs - перисто-слоистые, Cc - перисто-кучевые, Ac - высококучевые, As - высокослоистые, Sc - слоисто-кучевые, Ns - слоисто-дождевые, Cu - кучевые, Cb - кучево-дождевые. Подробнее классификацию облаков см. в Атласе облаков (PDF).
  • T - Температура воздуха - температура, измеренная на высоте 2 м над землей.
  • Td - Температура точки росы - температура, при понижении до которой содержащийся в воздухе водяной пар достигнет насыщения.
  • f - Относительная влажность воздуха - влажноcть воздуха, измеренная на высоте 2 м над землей.
  • Te - Эффективная температура - температура, которую ощущает одетый по сезону человек в тени. Характеристика душности погоды. При расчете учитывается влияние влажности воздуха и скорости ветра на теплоощущения человека.
  • Tes - Эффективная температура на солнце - температура, которую ощущает человек, с поправкой на солнечный нагрев. Характеристика знойности погоды. Зависит от высоты солнца над горизонтом, облачности и скорости ветра. Ночью, в пасмурную погоду, а также при ветре 12 м/с и более поправка равна нулю.
  • P - Атмосферное давление - приведенное к уровню моря атмосферное давление.
  • Po - Атмосферное давление - измеренное на уровне метеостанции атмосферное давление.
  • Tmin - Минимальная температура - минимум температуры воздуха на высоте 2 м над землей.
  • Tmax - Максимальная температура - максимум температуры воздуха на высоте 2 м над землей.
  • R - Количество осадков - Количество выпавших осадков за период времени, мм. При наведении курсора мыши на число - период времени, за который выпало указанное количество осадков.
  • R24 - Количество осадков - Количество выпавших осадков за 24 часа, мм.
  • S - Снежный покров - Высота снежного покрова, см. При наведении курсора мыши на число - состояние снежного покрова и степень покрытия местности в баллах.